Weather in Ivaylovgrad

Bulgaria     41°31′39″N   26°07′28″E
temp.,
°C
wind,
m/s
gust,
m/s
humid.,
%
clouds,
%
prec.,
mm/h
press.,
hPa
HPBL,
m
26 september, sun
sun2600:00+16ene11560 0.0 102211
03:00+15e01690 0.0 102211
06:00+14nnw11750 0.0 102211
09:00+18ne11600 0.0 1022166
12:00+24e21380 0.0 1022906
15:00+27e32320 0.0 10201603
18:00+26ese33340 0.0 1018995
21:00+19ssw11480 0.0 101911
27 september, mon
mon2700:00+17ese11550 0.0 101911
03:00+15sse11580 0.0 101911
06:00+14se11590 0.0 101910
09:00+18se11450 0.0 1019169
12:00+24e32354 0.0 1018975
15:00+27ene34290 0.0 10161726
18:00+25e33315 0.0 10151193
21:00+17ese355587 0.0 1017116
28 september, tue
tue2800:00+15se227135 0.0 101823
03:00+14se11815 0.0 101811
06:00+13se1189100 0.0 101811
09:00+16ne127490 0.0 1018305
12:00+19ne3462100 0.0 1019767
15:00+21ne445463 0.0 10181149
18:00+19ne5552100 0.1 1018999
21:00+14ese2580100 2.9 1021249
29 september, wed
wed2900:00+13nne3785100 0.3 1022451
03:00+13n368799 0.3 1022478
06:00+13n3687100 0.0 1022424
09:00+13n3787100 0.1 1023552
12:00+14nne476832 0.0 1024918
15:00+21nne683761 0.0 10211899
18:00+18ne77402 0.0 10211594
21:00+13ne49610 0.0 1024301
30 september, thu
thu3000:00+11nnw33730 0.0 102454
03:00+10nnw34893 0.0 102461
06:00+11nnw388655 0.0 1024305
09:00+12n4106990 0.0 1024513
12:00+14nne6964100 0.0 1024965
15:00+16nne7964100 0.2 10231261
18:00+15ne7106923 0.4 10231004
21:00+12nne5127919 0.4 1025479